GFSNW_con_mlcape_003.txt.gz
CAPE
6 15 28 22 30 35 4 0 1 20 10 2 6 0 0 0 0 0 0 0 0 0 0 0 0 0 0 0 0 1 0 0 0 0 0 0 1 0 0 5 0 0 0 0
14 17 21 12 41 42 8 5 10 28 8 0 2 3 0 0 0 0 0 0 1 0 1 0 0 0 0 0 0 0 0 0 0 1 0 1 0 0 0 0 2 0 0 0
25 21 22 4 37 18 14 6 0 12 14 4 1 1 0 0 0 0 6 5 1 1 0 0 0 0 0 0 0 3 1 0 0 0 1 1 0 0 0 0 0 0 0 0
19 17 8 7 36 5 14 1 1 0 2 2 0 1 1 0 0 4 1 3 5 1 1 1 0 0 0 0 0 3 3 0 0 0 0 1 1 1 0 2 0 0 0 0
12 15 5 2 26 2 15 9 6 2 0 6 1 0 0 10 0 4 2 2 1 2 3 1 0 0 0 0 0 2 4 0 0 0 0 0 1 1 15 0 0 0 9 0
8 7 5 3 37 23 1 1 2 0 2 4 2 0 0 1 4 2 0 0 1 4 3 0 0 0 1 12 1 3 0 0 0 0 1 1 0 0 0 0 1 0 0 0
10 6 4 11 38 26 16 5 0 17 1 1 1 4 0 0 0 0 6 4 5 1 1 2 0 0 0 23 4 0 0 0 0 0 0 0 0 0 0 0 0 0 0 0
15 10 13 26 33 25 4 3 2 13 3 1 2 2 3 1 2 0 0 0 0 3 6 9 7 0 1 0 0 0 0 1 0 0 0 0 0 3 4 0 0 0 0 0
15 11 6 27 30 4 1 0 1 2 0 3 2 2 2 1 1 0 0 0 0 4 2 6 0 0 0 0 0 0 0 0 0 0 0 0 0 0 0 0 0 0 0 0
12 16 10 32 21 0 8 1 2 0 1 2 2 0 0 0 0 0 0 0 4 1 3 4 6 0 0 0 0 0 0 0 0 0 0 0 0 0 0 0 0 0 0 0
6 14 8 23 15 3 10 0 0 3 9 0 0 0 1 0 0 0 0 1 3 3 3 6 0 0 0 0 0 0 0 0 0 0 0 0 0 0 0 0 0 0 0 0
5 10 6 12 10 10 5 1 0 1 1 0 0 0 0 0 0 1 0 2 3 5 1 0 0 0 0 0 0 0 0 0 0 0 0 0 0 0 0 0 0 0 0 0
6 11 6 9 5 16 15 1 1 0 0 0 0 0 0 0 0 0 1 2 1 10 0 0 0 0 0 0 0 0 0 0 0 0 0 0 0 0 0 0 0 0 0 0
8 11 7 7 7 23 14 1 0 2 0 0 0 0 0 0 0 0 0 0 1 1 0 7 0 0 0 0 0 0 0 0 0 0 0 0 0 0 0 0 0 0 0 0
40 1 4 10 7 20 0 0 0 0 5 7 12 0 0 0 0 0 0 2 1 4 5 2 8 0 0 0 0 0 0 0 0 0 0 0 0 0 0 0 0 0 0 0
0 2 6 11 7 16 0 1 0 0 2 3 9 0 0 0 2 2 1 5 1 6 4 0 4 0 0 0 0 0 0 0 0 0 0 0 0 0 0 0 0 0 0 0
4 6 2 0 1 13 2 1 1 0 2 3 5 1 0 0 2 1 0 1 6 8 8 0 1 2 1 0 0 0 0 0 0 0 0 0 0 0 0 0 0 0 0 0
0 0 0 0 2 1 0 0 0 0 1 1 9 0 0 0 9 1 1 3 6 3 5 0 0 0 0 0 0 0 0 0 0 0 0 0 0 0 0 0 0 0 0 0
0 0 0 2 0 1 1 4 0 0 0 15 7 1 0 0 4 3 0 4 6 0 1 0 0 0 0 0 0 0 0 0 0 0 0 0 0 0 0 0 0 0 0 0
0 0 1 6 1 0 0 4 2 1 2 1 3 0 0 0 0 2 0 0 0 2 0 0 0 0 0 0 0 0 0 0 0 0 0 0 0 0 0 0 0 0 0 0
0 2 0 0 0 0 3 2 1 2 3 4 0 0 0 0 3 0 0 0 0 0 0 0 0 0 0 0 0 0 0 0 0 0 0 0 0 0 0 0 0 0 0 0
11 10 7 0 0 1 0 0 1 1 0 0 0 0 0 0 0 0 0 0 0 0 0 0 0 0 0 0 0 0 0 0 0 0 0 0 0 0 0 0 0 0 0 0
3 1 0 0 0 0 0 0 1 0 0 0 0 0 0 0 0 0 0 0 0 0 0 0 0 0 0 0 0 0 0 0 0 0 0 0 0 0 0 0 0 0 0 0
1 0 0 0 0 0 0 0 0 0 0 0 0 0 0 0 0 0 0 0 0 0 0 0 0 0 0 0 0 0 0 0 0 0 0 0 0 0 0 0 0 0 0 0
2 0 0 0 0 0 0 0 0 0 0 0 0 0 0 0 0 0 0 0 0 0 0 0 0 0 0 0 0 0 0 0 0 0 0 0 0 0 0 0 0 0 0 0
1 0 0 0 0 0 0 0 0 0 0 0 0 0 0 0 0 0 0 0 0 0 0 0 0 0 0 0 0 0 0 0 0 0 0 0 0 0 0 0 0 0 0 0
0 1 0 0 0 0 0 0 0 0 0 0 0 0 0 0 0 0 0 0 0 0 0 0 0 0 0 0 0 0 0 0 0 0 0 0 0 0 0 0 0 0 0 0

GFSNW_con_mlcape_006.txt.gz
CAPE
18 24 19 29 31 20 9 2 0 30 35 2 2 0 0 0 0 0 0 0 0 0 0 0 0 0 0 0 0 0 0 0 0 0 0 0 0 0 0 0 0 0 0 0
42 20 15 15 31 57 13 3 17 16 13 0 0 0 0 0 0 0 0 0 0 2 0 0 0 0 0 0 0 0 0 0 0 0 0 0 0 0 0 0 0 0 0 0
35 16 10 14 43 4 5 1 5 11 12 4 0 0 0 0 0 0 1 3 0 0 2 0 0 0 0 0 0 0 0 0 0 0 0 0 0 0 0 0 0 0 0 0
27 14 3 8 32 1 5 1 1 0 0 1 0 1 0 0 0 0 2 4 3 1 0 0 0 0 0 0 0 7 1 0 1 0 0 0 1 0 1 0 0 0 0 0
19 10 3 11 26 11 0 2 0 0 0 0 0 0 1 0 0 7 0 0 0 0 4 0 0 0 0 0 0 1 2 0 0 0 0 0 0 1 1 1 0 0 0 0
6 12 3 8 30 22 1 0 0 1 5 1 0 0 0 0 1 0 0 1 4 3 1 6 2 0 0 0 0 1 1 0 0 0 0 1 0 1 2 0 0 0 0 0
5 10 6 8 26 31 6 1 2 22 1 2 0 0 0 0 5 1 3 3 9 5 13 8 3 0 0 0 0 0 0 0 1 0 0 0 1 0 0 0 0 0 0 0
8 12 6 8 24 25 6 1 2 18 1 5 0 0 0 0 2 2 1 0 2 22 25 3 4 0 0 0 0 0 0 0 0 0 0 0 0 1 0 0 0 0 0 0
14 11 8 3 19 14 2 0 1 1 0 0 0 3 9 2 1 1 5 1 0 9 14 2 1 0 0 0 0 0 0 0 0 0 0 0 0 0 0 0 0 0 0 0
12 10 14 2 7 7 3 1 1 1 2 0 3 0 0 2 0 0 0 0 0 9 4 1 0 0 0 0 0 0 0 0 0 0 0 0 0 0 0 0 0 0 0 0
9 4 13 4 6 8 9 0 1 1 1 1 0 0 0 0 0 0 0 0 1 1 4 2 1 0 0 0 0 0 0 0 0 0 0 0 0 0 0 0 0 0 0 0
9 4 14 6 7 18 9 1 0 1 1 0 0 0 0 0 0 0 0 0 2 3 20 1 3 1 0 0 0 0 0 0 0 0 0 0 0 0 0 0 0 0 0 0
10 6 11 1 7 12 23 0 0 0 1 0 0 0 0 0 0 0 0 0 1 4 1 1 0 0 0 0 0 0 0 0 0 0 0 0 0 0 0 0 0 0 0 0
35 20 0 2 6 6 17 3 0 1 0 0 0 0 0 0 0 0 0 0 1 3 5 7 0 0 0 0 0 0 0 0 0 0 0 0 0 0 0 0 0 0 0 0
0 1 3 4 6 7 0 0 0 0 1 5 9 0 0 0 0 0 0 0 1 1 9 2 5 0 0 0 0 0 0 0 0 0 0 0 0 0 0 0 0 0 0 0
7 3 3 3 3 4 0 0 0 3 1 4 3 0 0 0 2 2 1 0 4 6 12 6 6 0 0 0 0 0 0 0 0 0 0 0 0 0 0 0 0 0 0 0
7 13 7 5 1 3 0 1 1 0 0 11 0 0 0 0 0 2 1 1 2 6 2 11 1 0 0 0 0 0 0 0 0 0 0 0 0 0 0 0 0 0 0 0
10 8 3 1 4 1 0 0 0 0 1 2 1 0 0 0 3 6 0 2 5 4 5 3 0 0 0 0 0 0 0 0 0 0 0 0 0 0 0 0 0 0 0 0
4 0 0 5 1 1 0 0 1 0 1 0 1 0 0 0 0 1 1 0 1 1 1 2 0 0 0 0 0 0 0 0 0 0 0 0 0 0 0 0 0 0 0 0
0 0 0 20 0 0 0 0 1 0 10 1 2 0 0 0 1 3 0 0 2 0 0 0 0 0 0 0 0 0 0 0 0 0 0 0 0 0 0 0 0 0 0 0
0 0 0 0 0 0 4 1 1 1 2 0 5 0 0 0 0 0 0 0 0 0 0 0 0 0 0 0 0 0 0 0 0 0 0 0 0 0 0 0 0 0 0 0
5 1 1 1 1 0 0 0 0 1 0 0 1 0 0 0 0 0 0 0 0 0 0 0 0 0 0 0 0 0 0 0 0 0 0 0 0 0 0 0 0 0 0 0
0 0 0 0 0 0 0 0 0 2 0 0 0 0 0 0 0 0 0 0 0 0 0 0 0 0 0 0 0 0 0 0 0 0 0 0 0 0 0 0 0 0 0 0
0 0 0 0 0 0 0 0 0 0 0 0 0 0 0 0 0 0 0 0 0 0 0 0 0 0 0 0 0 0 0 0 0 0 0 0 0 0 0 0 0 0 0 0
1 0 0 0 0 1 0 0 0 0 1 0 0 0 0 0 0 0 0 0 0 0 0 0 0 0 0 0 0 0 0 0 0 0 0 0 0 0 0 0 0 0 0 0
1 0 0 0 0 0 0 0 0 0 0 0 0 0 0 0 0 0 0 0 0 0 0 0 0 0 0 0 0 0 0 0 0 0 0 0 0 0 0 0 0 0 0 0
0 0 0 0 0 0 0 2 0 1 1 0 0 0 0 0 0 0 0 0 0 0 0 0 0 0 0 0 0 0 0 0 0 0 0 0 0 0 0 0 0 0 0 0

GFSNW_con_mlcape_012.txt.gz
CAPE
28 17 6 14 18 27 10 1 0 26 1 0 0 0 0 5 0 0 0 0 0 0 0 1 1 0 0 0 0 2 0 3 1 0 0 0 0 0 1 0 0 0 3 0
17 10 5 6 13 11 13 2 3 13 25 0 0 1 0 0 0 0 0 0 0 0 0 0 0 0 0 0 0 0 2 1 0 0 0 0 3 0 0 2 0 0 1 0
18 9 1 5 6 18 4 1 0 1 2 11 0 0 0 0 0 0 0 0 0 0 0 0 0 0 0 0 0 0 0 4 0 0 0 0 0 1 1 1 0 0 0 0
15 10 1 1 4 4 0 1 2 1 1 0 1 0 0 0 0 0 0 0 0 0 0 0 0 0 0 0 0 0 2 0 1 0 1 1 2 2 3 0 0 0 0 0
6 6 1 0 0 0 0 0 1 2 5 0 0 0 0 0 0 0 0 0 0 0 1 0 1 0 0 0 0 0 6 1 1 0 0 1 1 3 3 1 2 2 3 0
6 3 1 5 3 0 4 0 1 2 3 3 0 0 0 0 0 0 0 0 0 1 0 0 5 2 0 0 0 1 3 0 0 0 0 0 1 0 1 1 1 1 1 0
10 3 1 7 1 7 3 5 1 2 1 2 0 0 0 0 0 0 0 0 2 5 7 13 6 5 7 10 6 1 0 0 0 0 0 0 1 0 1 1 0 1 0 0
9 2 3 7 3 4 0 1 1 1 2 0 0 0 0 0 0 1 2 1 1 0 4 6 2 1 3 0 2 6 4 8 0 0 0 0 1 0 4 1 0 0 0 0
13 4 1 10 0 4 0 0 3 1 2 0 0 0 0 0 0 0 0 0 0 2 18 12 0 1 0 0 0 0 0 1 1 0 0 0 0 0 0 0 0 0 0 0
14 11 2 8 0 1 0 0 2 1 1 0 0 0 0 0 0 0 0 0 0 5 7 5 1 0 0 0 0 1 0 1 0 0 1 0 0 0 0 0 0 0 0 0
3 11 1 0 0 0 2 0 2 1 2 0 0 0 0 0 0 0 0 0 1 2 1 1 0 3 0 0 0 0 0 0 0 0 0 0 0 0 0 0 0 0 0 0
1 2 2 1 1 1 4 1 0 0 2 1 0 0 0 0 0 2 0 2 0 0 2 1 2 4 0 0 2 0 0 0 0 0 0 0 0 0 0 0 0 0 0 0
1 4 7 3 1 0 1 0 0 0 2 2 2 3 0 0 0 0 5 0 0 0 3 6 1 1 0 1 0 0 0 0 0 0 0 0 0 0 0 0 0 0 0 0
5 5 10 5 6 6 3 1 0 1 2 0 0 0 0 0 0 0 0 0 0 0 0 1 1 2 0 6 0 0 0 0 0 0 0 0 0 0 0 0 0 0 0 0
12 13 18 7 8 13 2 0 0 0 0 1 9 0 0 0 0 0 0 0 0 1 3 0 0 13 0 0 0 0 0 0 0 0 0 0 0 0 0 0 0 0 0 0
14 14 16 16 21 15 4 1 4 0 0 2 8 0 0 0 2 0 0 0 0 4 2 1 8 13 0 8 2 0 0 0 0 0 0 0 0 0 0 0 0 0 0 0
12 13 10 19 12 13 5 0 0 0 1 1 1 0 0 1 2 2 1 2 3 2 2 2 2 10 1 1 2 0 0 0 0 0 0 0 0 0 0 0 0 0 0 0
8 10 2 0 7 10 3 0 1 1 2 1 0 0 1 2 6 3 2 2 1 1 1 5 7 1 1 6 0 0 0 0 0 0 0 0 0 0 0 0 0 0 0 0
11 0 0 23 3 4 2 0 2 2 0 1 1 0 0 3 3 0 5 9 7 0 2 3 0 0 0 0 0 0 0 0 0 0 0 0 0 0 0 0 0 0 0 0
0 0 0 3 0 0 0 0 3 1 0 0 1 0 0 1 1 3 1 3 5 1 0 0 0 0 0 0 0 0 0 0 0 0 0 0 0 0 0 0 0 0 0 0
0 0 0 0 0 0 1 0 1 1 4 4 1 0 0 0 0 0 0 1 0 0 0 0 0 0 0 0 0 0 0 0 0 0 0 0 0 0 0 0 0 0 0 0
0 2 3 1 0 0 0 0 0 1 1 1 3 0 0 0 0 0 0 0 0 0 0 1 0 0 0 0 0 0 0 0 0 0 0 0 0 0 0 0 0 0 0 0
0 0 0 0 0 0 0 0 0 1 0 0 0 0 0 0 0 0 0 0 0 0 0 0 0 0 0 0 0 0 0 0 0 0 0 0 0 0 0 0 0 0 0 0
1 0 0 0 0 0 0 2 2 1 0 0 0 0 0 0 0 0 0 0 0 0 0 0 0 0 0 0 0 0 0 0 0 0 0 0 0 0 0 0 0 0 0 0
1 0 0 0 1 0 0 0 0 0 0 1 0 0 0 0 0 0 0 0 0 0 0 0 0 0 0 0 0 0 0 0 0 0 0 0 0 0 0 0 0 0 0 0
0 0 0 0 0 0 0 0 1 0 1 0 0 0 0 1 0 0 0 0 0 0 0 0 0 0 0 0 0 0 0 0 0 0 0 0 0 0 0 0 0 0 0 0
1 0 0 0 0 0 0 0 0 0 1 0 0 0 2 0 0 0 0 0 0 0 0 0 0 0 0 0 0 0 0 0 0 0 0 0 0 0 0 0 0 0 0 0

GFSNW_con_mlcape_015.txt.gz
CAPE
7 21 6 8 19 24 2 0 0 18 19 6 4 1 1 9 1 0 0 0 0 0 0 1 0 0 0 0 0 2 2 2 0 0 0 0 0 0 0 0 0 0 0 0
19 15 6 8 10 13 1 0 2 1 4 1 0 1 3 10 4 20 4 0 0 0 0 0 0 0 0 0 0 1 0 2 0 0 0 0 0 0 0 0 0 0 2 0
11 24 6 6 0 7 0 1 0 2 6 6 0 1 14 10 21 5 0 0 0 0 0 0 0 0 0 0 0 0 4 3 0 0 0 0 0 1 1 1 0 0 0 0
15 19 8 7 0 0 0 2 3 6 0 8 1 2 3 5 3 0 0 0 0 0 0 0 0 0 0 0 0 0 1 1 2 0 0 1 0 0 0 0 0 0 0 0
8 15 9 7 1 0 0 0 1 0 0 7 0 0 9 10 0 0 0 0 0 0 2 2 0 3 2 3 0 0 3 1 3 1 1 0 0 0 1 2 1 2 2 0
11 10 11 10 2 1 1 0 1 1 5 2 0 1 2 0 0 0 0 1 0 2 5 2 7 2 0 1 1 2 3 1 0 0 0 0 0 1 2 0 1 2 1 0
5 10 8 14 0 9 1 1 2 1 2 3 0 0 0 0 0 2 0 1 4 4 0 0 2 5 4 7 1 0 3 0 1 0 0 0 0 0 0 2 1 2 0 0
1 14 12 12 0 2 0 0 2 2 9 1 2 1 0 0 0 4 2 1 1 0 0 3 1 4 0 0 0 9 3 5 0 0 2 0 1 0 0 1 0 0 0 0
0 2 9 1 0 0 0 1 0 1 1 4 2 0 0 0 4 1 0 0 1 0 8 15 1 2 1 1 2 0 5 0 2 0 0 1 0 0 0 0 0 0 0 0
0 0 0 1 1 1 0 0 0 1 3 1 2 0 0 0 2 8 3 1 2 3 5 4 2 0 1 1 6 1 1 2 1 0 0 0 0 0 0 0 0 0 0 0
0 1 0 2 3 1 0 0 1 0 2 0 0 3 8 9 2 5 2 0 1 5 9 2 3 7 11 0 0 6 1 1 1 1 0 0 0 0 0 0 0 0 0 0
0 1 4 2 4 4 7 2 0 4 2 0 0 8 6 14 21 15 0 9 3 5 0 2 2 2 0 4 0 0 0 0 1 0 4 0 0 0 0 0 0 0 0 0
5 4 11 13 3 7 12 11 1 0 2 1 1 7 1 0 0 0 12 6 9 6 7 1 2 2 5 3 2 8 0 0 0 0 0 0 0 0 0 0 0 0 0 0
10 8 3 18 19 8 14 15 8 0 1 0 9 0 1 0 0 0 3 10 1 3 3 2 1 2 8 13 6 1 2 0 0 0 0 0 0 0 0 0 0 0 0 0
12 12 11 19 23 14 21 4 3 0 1 1 2 0 0 0 0 0 0 7 8 6 5 3 3 1 2 1 0 0 0 0 0 8 0 0 0 0 0 0 0 0 0 0
18 13 19 32 23 27 19 2 1 1 4 2 1 0 0 1 0 0 0 3 1 1 4 1 2 2 12 21 3 0 0 0 0 0 0 0 0 0 0 0 0 0 0 0
12 8 24 26 25 21 10 0 2 6 0 2 1 3 1 2 1 1 1 2 1 2 2 0 1 2 15 4 1 0 0 0 0 0 0 0 0 0 0 0 0 0 0 0
5 20 2 2 13 20 7 4 23 2 1 2 1 0 5 1 4 5 2 1 2 4 2 4 0 3 4 1 0 0 0 0 0 0 0 0 0 0 0 0 0 0 0 0
0 0 1 15 6 16 10 1 9 4 2 1 1 0 2 5 5 11 2 14 3 1 2 13 3 1 0 0 0 0 0 0 0 0 0 0 0 0 0 0 0 0 0 0
0 0 4 6 5 0 0 0 2 2 2 1 1 1 3 3 5 11 15 13 4 1 3 0 0 0 0 0 0 0 0 0 0 0 0 0 0 0 0 0 0 0 0 0
1 1 1 1 0 2 2 0 0 2 2 2 8 2 4 0 0 7 0 0 0 3 0 1 0 0 0 0 0 0 0 0 0 0 0 0 0 0 0 0 0 0 0 0
1 2 0 2 0 0 0 0 0 1 2 7 9 4 0 0 0 1 0 1 0 0 0 1 0 0 0 0 0 0 0 0 0 0 0 0 0 0 0 0 0 0 0 0
1 4 0 1 1 0 0 0 1 0 1 1 0 0 0 0 0 0 0 0 0 0 0 0 0 0 0 0 0 0 0 0 0 0 0 0 0 0 0 0 0 0 0 0
1 1 0 0 0 0 1 1 2 1 0 1 0 0 0 0 0 0 0 0 0 0 0 0 0 0 0 0 0 0 0 0 0 0 0 0 0 0 0 0 0 0 0 0
2 1 0 0 0 1 1 1 1 1 2 1 0 0 0 0 0 0 0 0 0 0 0 0 0 0 0 0 0 0 0 0 0 0 0 0 0 0 0 0 0 0 0 0
1 2 0 0 1 0 0 1 1 0 2 1 0 1 0 0 0 0 0 0 0 0 0 0 0 0 0 0 0 0 0 0 0 0 0 0 0 0 0 0 0 0 0 0
0 0 2 0 0 0 0 0 0 0 0 0 0 0 0 0 0 0 0 0 0 0 0 0 0 0 0 0 0 0 0 0 0 0 0 0 0 0 0 0 0 0 0 0